{"data":{"norad_id":63300,"epoch":"2026-09-22T21:49:34.992192Z","epoch_age_seconds":100692,"freshness":"FRESH","line1":"1 63300U 25056A   26265.90943278  .00000955  00000+0  15874-3 0  9999","line2":"2 63300  97.9147  27.1549 0001691 160.6584 199.4688 14.72324209 81509","mean_motion":14.72324209,"eccentricity":0.0001691,"inclination_deg":97.9147,"raan_deg":27.1549,"arg_perigee_deg":160.6584,"mean_anomaly_deg":199.4688,"bstar":0.00015874,"rev_number":8150,"period_min":97.804545438946,"perigee_km":652.46900072225,"apogee_km":654.84715381738,"semimajor_km":7031.7950772698,"source":"CELESTRAK","updated_at":"2026-09-23T09:00:21.958513Z"}}